Regional Weather Roundup
Issued by NWS

Home | Current Version | Previous Version | Graphics & Text | Print | Product List | Glossary On
Versions: 1 2 3 4 5 6 7 8 9 10 11 12 13 14 15 16 17 18 19 20 21 22 23 24 25 26 27 28 29 30 31 32 33 34 35 36 37 38 39 40 41 42 43 44 45 46 47 48 49 50
000
ASUS43 KLMK 070110
RWRKY
KENTUCKY REGIONAL WEATHER ROUNDUP
NATIONAL WEATHER SERVICE LOUISVILLE KY
800 PM EST SAT FEB 06 2016

NOTE "FAIR" INDICATES FEW OR NO CLOUDS BELOW 12,000 FEET
WITH NO SIGNIFICANT WEATHER AND/OR OBSTRUCTIONS TO VISIBILITY.

KYZ001>023-026-027-061>063-070>075-070200-
WESTERN AND SOUTH CENTRAL KENTUCKY

CITY           SKY/WX    TMP DP  RH WIND       PRES   REMARKS
PADUCAH        CLEAR     47  21  35 S6        30.27S
HENDERSON      CLEAR     37  25  60 S6        30.25S WCI  33
OWENSBORO      CLEAR     41  27  57 CALM      30.27R
HOPKINSVILLE   CLEAR     44  21  39 SW3       30.28S
BOWLING GREEN  CLEAR     44  23  43 S3        30.28S
GLASGOW        CLEAR     40  23  49 CALM      30.28S
$$

KYZ024-025-028>034-038-045-046-053-070200-
NORTH CENTRAL KENTUCKY

CITY           SKY/WX    TMP DP  RH WIND       PRES   REMARKS
LOUISVILLE/SDF CLEAR     45  24  43 CALM      30.26S
LOUISVILLE/LOU CLEAR     43  26  51 CALM      30.27S
FORT KNOX      CLEAR     39  23  51 CALM      30.24F
$$

KYZ035>037-039>044-047>052-055>060-089>105-070200-
NORTHEAST KENTUCKY

CITY           SKY/WX    TMP DP  RH WIND       PRES   REMARKS
LEXINGTON      CLEAR     40  23  50 CALM      30.27S
COVINGTON      CLEAR     36  22  56 SW3       30.24F
FRANKFORT      CLEAR     36  23  59 CALM      30.26S
$$

KYZ054-064>069-076>088-106>120-070200-
SOUTHEAST KENTUCKY

CITY           SKY/WX    TMP DP  RH WIND       PRES   REMARKS
JACKSON        CLEAR     43  20  39 W3        30.25F
LONDON         CLEAR     38  22  52 CALM      30.27S
SOMERSET       CLEAR     37  23  56 CALM      30.29S
MIDDLESBORO    PTCLDY    36  28  71 CALM      30.28F
MONTICELLO     PTCLDY    31  25  78 VRB7      30.30S WCI  24
$$




USA.gov is the U.S. government's official web portal to all federal, state and local government web resources and services.